Location: Newark
(7.0858°N, 171.3717°E)
Time: 07:25:03
(UTC+00:00)

A-11 Canister half - Pass Details

Date: 03 August 2021
Orbit: 1526 x 1683 km, 47.3° (Epoch: 16 September)

Event Time Altitude Azimuth Distance (km) Brightness Sun altitude
Rises 08:04:17 0° 315° (NW) 4,778 12.8 -17.5°
Reaches altitude 10° 08:07:25 10° 313° (NW) 3,773 12.1 -18.2°
Maximum altitude 08:16:52 70° 231° (SW) 1,625 9.1 -20.4°
Enters shadow 08:23:30 22° 152° (SSE) 2,883 10.0 -21.9°
